Regional Weather Roundup
Issued by NWS

Home | Current Version | Previous Version | Text Only | Print | Product List | Glossary Off
Versions: 1 2 3 4 5 6 7 8 9 10 11 12 13 14 15 16 17 18 19 20 21 22 23 24 25 26 27 28 29 30 31 32 33 34 35 36 37 38 39 40 41 42 43 44 45 46 47 48 49 50

000
ASUS43 KFSD 271610
RWRSD

WEATHER ROUNDUP FOR SOUTH DAKOTA
NATIONAL WEATHER SERVICE SIOUX FALLS SD
1100 AM CDT WED MAY 27 2015

NOTE: "FAIR" INDICATES FEW OR NO CLOUDS BELOW 12,000 FEET WITH NO
SIGNIFICANT WEATHER AND/OR OBSTRUCTIONS TO VISIBILITY.


SDZ001>005-009-010-012>017-271700-
NORTHWEST AND NORTH CENTRAL SOUTH DAKOTA

CITY           SKY/WX    TMP DP  RH WIND       PRES   REMARKS
BUFFALO          N/A     69  52  54 S9        29.90S
FAITH            N/A     71  52  50 S17       29.97F
MOBRIDGE       MOSUNNY   73  53  49 S6        29.97S
$$

SDZ012>016-024>037-041>051-057-063-072>074-271700-
SOUTHWEST AND SOUTH CENTRAL SOUTH DAKOTA

CITY           SKY/WX    TMP DP  RH WIND       PRES   REMARKS
RAPID CTY ARPT CLOUDY    64  55  72 S10       30.00S
PIERRE         SUNNY     74  53  48 SW7       29.99S
CUSTER         PTSUNNY   58  49  72 VRB3      30.07S
ELLSWORTH AFB  CLOUDY    62  55  78 S12       29.99S
PHILIP         CLOUDY    69  55  60 S15       29.99F
PINE RIDGE     MOSUNNY   65  54  67 S14       30.03S
SPEARFISH      FAIR      64  52  63 NE9       30.00S
WINNER         FAIR      74  51  44 SW14      30.04S
$$

SDZ004>011-016>023-039-040-271700-
NORTHEAST SOUTH DAKOTA

CITY           SKY/WX    TMP DP  RH WIND       PRES   REMARKS
ABERDEEN       SUNNY     79  51  37 NW8       29.97S
WATERTOWN      SUNNY     76  52  43 NW10      29.99R
BROOKINGS      SUNNY     73  54  49 NW8       30.00R
SISSETON         N/A     76  52  43 N13       29.95R
$$

SDZ017-020-022-023-036>040-048>070-271700-
SOUTHEAST SOUTH DAKOTA

CITY           SKY/WX    TMP DP  RH WIND       PRES   REMARKS
SIOUX FALLS    MOSUNNY   77  54  44 CALM      30.01R
HURON          SUNNY     76  52  43 N6        30.00S
CHAMBERLAIN    SUNNY     72  54  53 SW3       30.03F
MITCHELL       SUNNY     76  53  44 CALM      30.02R
YANKTON        SUNNY     73  54  49 W5        30.02S
$$

ABBREVIATIONS USED IN REMARKS
   TC - TEMPERATURE IN CELSIUS
  WCI - WIND CHILL INDEX
   HX - HEAT INDEX
  VSB - VISIBILITY



USA.gov is the U.S. government's official web portal to all federal, state and local government web resources and services.